Terminal Aerodrome Forecast
Issued by NWS Mt. Holly, NJ

Home | Current Version | Previous Version | Text Only | Print | Product List | Glossary On
Versions: 1 2 3 4 5 6 7 8 9 10 11 12 13 14 15 16 17 18 19 20 21 22 23 24 25 26 27 28 29 30 31 32 33
782
FTUS41 KPHI 261123
TAFPHL
TAF
KPHL 261123Z 2612/2718 05005KT P6SM FEW020 OVC035
      TEMPO 2612/2614 BKN020
     FM261500 08006KT P6SM OVC030
     FM261700 13006KT P6SM BKN035
     FM262200 16006KT P6SM BKN080
     FM271000 19007KT P6SM SCT025 BKN050=

USA.gov is the U.S. government's official web portal to all federal, state and local government web resources and services.